Regional Weather Roundup
Issued by NWS

Home | Current Version | Previous Version | Text Only | Print | Product List | Glossary Off
Versions: 1 2 3 4 5 6 7 8 9 10 11 12 13 14 15 16 17 18 19 20 21 22 23 24 25 26 27 28 29 30 31 32 33 34 35 36 37 38 39 40 41 42 43 44 45 46 47 48 49 50

568
ASUS45 KBOU 200307
RWRCO

WEATHER ROUNDUP FOR COLORADO
NATIONAL WEATHER SERVICE DENVER/BOULDER CO
800 PM MST THU JAN 19 2017

NOTE: "FAIR" INDICATES FEW OR NO CLOUDS BELOW 12000 FEET WITH NO
SIGNIFICANT WEATHER AND/OR OBSTRUCTIONS TO VISIBILITY.

COZ001>005-013-030-031-200400-
...NORTHWEST COLORADO...

CITY           SKY/WX    TMP DP  RH WIND       PRES   REMARKS
CRAIG          LGT SNOW  28  24  85 CALM      29.70F FOG
HAYDEN         CLOUDY    27  21  80 CALM      29.69F
MEEKER         LGT SNOW  30  30 100 CALM      29.69F FOG
MOUNT WERNER   NOT AVBL
STEAMBOAT SPGS CLOUDY    22  19  89 SE7       29.68F WCI  14
WALDEN           N/A     25  18  74 S5        29.66S WCI  19
$$

COZ006>008-011-200400-
...WEST CENTRAL VALLEYS...

CITY           SKY/WX    TMP DP  RH WIND       PRES   REMARKS
GRAND JUNCTION LGT SNOW  31  31 100 E6        29.72F FOG     WCI  25
MONTROSE       CLOUDY    31  31 100 NW5       29.74F WCI  26
EAGLE          LGT SNOW  27  25  93 CALM      29.74F FOG
RIFLE          LGT SNOW  31  31 100 CALM      29.72F FOG
DELTA          LGT RAIN  35  34  95 NE3       29.73F
NUCLA          LGT SNOW  32  32 100 CALM      29.76F
$$

COZ017>023-064>068-200400-
...SOUTHWEST COLORADO...

CITY           SKY/WX    TMP DP  RH WIND       PRES   REMARKS
DURANGO        LGT SNOW  30  28  92 SE3       29.77S VSB 1
CORTEZ         LGT SNOW  32  32 100 CALM      29.76F FOG
PAGOSA SPRINGS LGT SNOW  30  30  99 SE3       29.76F
TELLURIDE      NOT AVBL
WOLF CREEK PAS CLOUDY    14  14 100 S16       29.77F WCI  -2
$$

COZ009-010-012-014-032>034-037-058>063-200400-
...CENTRAL COLORADO...

CITY           SKY/WX    TMP DP  RH WIND       PRES   REMARKS
ASPEN          LGT SNOW  27  26  96 CALM      29.69F FOG
BUENA VISTA    CLOUDY    29  18  65 CALM      29.67S
COPPER MTN     FLURRIES  19  14  79 MISG      29.68F
BERTHOUD PASS  NOT AVBL
COTTONWOOD PAS CLOUDY    28  19  69 CALM      29.68R
GUNNISON       LGT SNOW  14  11  87 CALM      29.77F FOG
KREMMLING      LGT SNOW  19  14  79 CALM      29.73S
LEADVILLE      SNOW      20  17  88 N9        29.66F VSB 1/2 WCI   9
MONARCH PASS   SNOW      18  14  86 SW15G25   29.79S VSB 1/4 WCI   3
SALIDA         CLOUDY    33  23  67 SW14G22   29.74S WCI  23
SUNLIGHT       LGT SNOW  19  18  93 S6        29.73S VSB 1   WCI  11
WILKERSON PASS MOCLDY    21  14  73 SW14G21   29.68F WCI   8
$$

COZ069>075-200400-
...SAN LUIS VALLEY/SANGRE DE CRISTO MOUNTAINS...

CITY           SKY/WX    TMP DP  RH WIND       PRES   REMARKS
ALAMOSA        LGT SNOW  20  19  96 W6        29.76S VSB 1   WCI  12
LA VETA PASS   LGT SNOW  21  19  93 NE39G53   29.63F WCI   1
SAGUACHE       LGT SNOW  23  21  93 CALM      29.76S VSB 1
$$

COZ035-036-038>040-200400-
...NORTHERN COLORADO FRONT RANGE...

CITY           SKY/WX    TMP DP  RH WIND       PRES   REMARKS
DENVER INTL AP FAIR      34  21  59 SE6       29.52S WCI  29
DMNS CITY PARK   N/A     38  22  53 N5        29.52S
AURORA         PTCLDY    32  20  62 SW7       29.52F WCI  26
FRONT RANGE AP NOT AVBL
ERIE MUNI ARPT FAIR      28  24  85 S5        29.52S WCI  23
BOULDER MUN AP FAIR      37  23  56 W6        29.52S
CENTENNIAL     FAIR      33  20  58 SW5       29.53S WCI  29
BROOMFIELD     PTCLDY    45  19  36 NW5       29.53F
FORT COLLINS   FAIR      37  25  60 NE5       29.53S
LONGMONT       FAIR      34  24  66 W5        29.55S WCI  30
$$

COZ041-046-047-076>085-087-088-200400-
...PIKES PEAK/PALMER DIVIDE AND SOUTHERN FOOTHILLS...

CITY           SKY/WX    TMP DP  RH WIND       PRES   REMARKS
COLO. SPRINGS  FAIR      30  16  56 N8        29.55S WCI  22
A. F. ACADEMY  FAIR      26  15  65 N9        29.55R WCI  16
SCHRIEVER AFB  NOT AVBL
ELLICOTT       FAIR     N/A N/A N/A NW3       29.53S
FALCON         FAIR      32  16  51 W9        29.56S WCI  24
FORT CARSON    PTCLDY    39  19  45 W5        29.54F
LIMON          FAIR      24  21  88 NW3       29.53S
MONUMENT HILL  FAIR      30  18  59 S7        29.57R WCI  23
TRINIDAD       FAIR      28  19  69 NW9       29.53S WCI  19
$$

COZ042>045-048>051-090-091-200400-
...NORTHEAST COLORADO...

CITY           SKY/WX    TMP DP  RH WIND       PRES   REMARKS
GREELEY ARPT   FAIR      28  25  88 N5        29.53S WCI  23
AKRON          FAIR      30  22  72 W7        29.52S WCI  23
BURLINGTON     FOG       31  31 100 SE8       29.53F VSB 1/4 WCI  23
WRAY           FOG       28  28 100 SE5       29.54S VSB 1/2 WCI  23
STERLING       FAIR      32  27  80 CALM      29.53R
HOLYOKE        FAIR      30  27  86 CALM      29.53F
FORT MORGAN    FAIR      33  22  62 CALM      29.53S
$$

COZ086-089-092>099-200400-
...SOUTHEAST COLORADO...

CITY           SKY/WX    TMP DP  RH WIND       PRES   REMARKS
PUEBLO         FAIR      34  26  72 N10       29.51R WCI  26
LA JUNTA       FAIR      37  24  59 SE6       29.51S
LAMAR          FAIR      29  27  92 E9        29.51F FOG     WCI  20
SPRINGFIELD      N/A     30  30 100 S5        29.53F WCI  25
$$




USA.gov is the U.S. government's official web portal to all federal, state and local government web resources and services.